[[{"header":{"parameterUnit":"m.s-1","parameterCategory":2,"la1":30.2991,"la2":30.254,"lo1":-89.0895,"lo2":-89.0444,"dy":0.0017,"dx":0.0017,"nx":28,"ny":28,"refTime":"2025-02-01T09:00:00:Z","depth":"0","parameterNumber":2,"parameterNumberName":"U-component_of_CURRENTS"},"data":[0,0,0,0,0,0,0,0,0,0,0,0,0,0,0,0,0,0,0,0,0,0,0,0,0,0,0,0,0,0,0,0,0,0,0,0,0,0,0,0,0,0,0,0,0,0,0,0,0,0,0,0,0,0,0,0,0,0,0.1956,0.1956,0,0.193,0.1929,0.1928,0.1892,0.1892,0.1891,0.1891,0.1795,0.1793,0.179,0,0,0,0,0,0,0,0,0,0,0,0,0,0.1964,0.1963,0.1956,0.1956,0.1956,0.193,0.1929,0.1928,0.1892,0.1891,0.1891,0.1891,0.1796,0.1793,0.179,0,0,0,0,0,0,0,0,0,0,0,0,0,0.1948,0.1963,0.1956,0.1937,0.1935,0.193,0.1929,0.1928,0.1892,0.1891,0.1891,0.189,0.1796,0.1793,0.179,0.1779,0,0,0.178,0.1778,0,0,0,0,0,0,0,0,0.1949,0.1948,0.194,0.1938,0.1936,0.1916,0.1897,0.1876,0.1892,0.1905,0.1891,0.189,0.1831,0.1825,0.1818,0.1775,0.1771,0.1779,0.1777,0.1776,0.1775,0,0,0,0,0,0,0,0.195,0.1948,0.1942,0.194,0.1938,0.1926,0.1923,0.1892,0.1868,0.1904,0.1902,0.1904,0.1829,0.1821,0.1815,0.1769,0.1779,0.1776,0.1774,0.1773,0.1729,0.1729,0,0,0,0,0,0,0.1961,0.195,0.1943,0.1942,0.1945,0.1926,0.1923,0.1921,0.187,0.1863,0.1905,0.1903,0.1827,0.1819,0.1812,0.1806,0.1776,0.1773,0.1771,0.1728,0.1729,0.173,0,0,0,0,0,0,0.1961,0.196,0.1945,0.1948,0.1945,0.1927,0.1925,0.192,0.1913,0.1871,0.1862,0.1902,0.1826,0.1816,0.1797,0.1801,0.1771,0.1768,0.1727,0.1728,0.1729,0.1788,0,0,0,0,0,0,0.1961,0.196,0.196,0.1948,0.1946,0.1946,0.1925,0.192,0.1917,0.1914,0.1866,0.1857,0.1825,0.1802,0.1793,0.1796,0.1765,0.1726,0.1727,0.1729,0.1785,0.1791,0.1796,0,0,0,0,0,0.1961,0.1963,0.196,0.1959,0.1946,0.1947,0.1944,0.1927,0.1918,0.1918,0.1893,0.1859,0.1806,0.18,0.179,0.1792,0.1725,0.1727,0.1729,0.1782,0.179,0.1796,0,0,0,0,0,0,0.1954,0.196,0.1955,0.1955,0.1955,0.1942,0.1942,0.1933,0.1914,0.1909,0.1867,0.1857,0.1845,0.1813,0.1808,0.1786,0.176,0.176,0.1805,0.1811,0.1817,0.1846,0.1763,0,0,0,0,0,0.1957,0.1967,0.1964,0.1965,0.1967,0.1956,0.1954,0.1946,0.1932,0.1923,0.1893,0.1863,0.1845,0.1824,0.1804,0.1785,0.1801,0.1781,0.1787,0.1791,0.1809,0.1859,0.1872,0.1736,0.1736,0.1736,0,0,0.1958,0.196,0.1966,0.1967,0.1963,0.1972,0.1953,0.1956,0.1959,0.1914,0.1905,0.1885,0.1848,0.1836,0.1826,0.1806,0.1837,0.1794,0.1798,0.1814,0.1863,0.1876,0.1888,0.1737,0.1737,0.1737,0,0,0.1974,0.1964,0.1986,0.1987,0.1993,0.1984,0.1989,0.1982,0.1974,0.1966,0.1943,0.1937,0.1887,0.1878,0.1862,0.1887,0.1874,0.1867,0.1906,0.1954,0.1966,0.1977,0.2012,0.2026,0.186,0.186,0.186,0,0.1977,0.1995,0.199,0.2008,0.201,0.1994,0.2011,0.2003,0.1989,0.1987,0.1969,0.1945,0.1914,0.1916,0.1925,0.1901,0.1923,0.1881,0.1964,0.1975,0.1985,0.2019,0.2033,0.1863,0.1863,0.1862,0.1862,0,0.2016,0.2023,0.2033,0.2052,0.2051,0.2061,0.2054,0.205,0.2034,0.2028,0.203,0.2006,0.1992,0.198,0.1956,0.2004,0.1995,0.1976,0.1951,0.2003,0.2034,0.2048,0.1867,0.1866,0.1865,0.1865,0,0,0.2044,0.2061,0.2063,0.207,0.2074,0.2075,0.2082,0.2084,0.2085,0.2079,0.2088,0.2078,0.2072,0.2058,0.2035,0.2071,0.2157,0.2055,0.2056,0.2098,0.2265,0.2208,0.2217,0.2156,0.2159,0.2161,0.2257,0,0.2079,0.2112,0.2111,0.2131,0.2144,0.2126,0.2129,0.2126,0.2113,0.2113,0.2111,0.2107,0.2097,0.2088,0.2133,0.2139,0.2197,0.2133,0.2202,0.2204,0.2154,0.2233,0.213,0.2203,0.2271,0.2273,0.2274,0,0.2129,0.2137,0.2164,0.2163,0.2167,0.2171,0.2163,0.2165,0.2163,0.2153,0.2167,0.2155,0.2194,0.218,0.2268,0.2227,0.2269,0.2287,0.229,0.223,0.2174,0.2162,0.2226,0.2069,0.2296,0.2294,0.2292,0,0.2157,0.2175,0.2192,0.2193,0.2191,0.2191,0.2185,0.2178,0.2174,0.218,0.2177,0.2219,0.2223,0.2299,0.2318,0.2309,0.2414,0.2399,0.2401,0.2396,0.2319,0.2303,0.2247,0.251,0.251,0.251,0.2509,0,0.2198,0.221,0.2201,0.2208,0.2214,0.2206,0.2207,0.2203,0.2199,0.2193,0.2202,0.2205,0.2258,0.2299,0.2349,0.2405,0.2445,0.2438,0.2431,0.2334,0.2318,0.2184,0.2118,0.2513,0.2513,0.2512,0.2511,0,0.2233,0.2231,0.2244,0.2234,0.2229,0.223,0.2212,0.2206,0.2206,0.2199,0.2201,0.2211,0.225,0.2298,0.239,0.2421,0.2391,0.2503,0.2373,0.2349,0.2202,0.2143,0.2055,0.2026,0.2543,0.2543,0.2542,0,0.2259,0.2268,0.2258,0.2247,0.224,0.2233,0.2219,0.2211,0.2197,0.2194,0.2189,0.2214,0.2212,0.2308,0.236,0.2445,0.2348,0.2407,0.2381,0.22,0.2131,0.2021,0.1997,0.2306,0.2304,0.2302,0.23,0,0.2287,0.228,0.2274,0.2255,0.2237,0.2224,0.2203,0.2197,0.2178,0.2172,0.2155,0.2155,0.2204,0.2208,0.2289,0.2335,0.2227,0.237,0.2224,0.1986,0.1824,0.1788,0.2223,0.2282,0.2284,0.2285,0.2286,0.2287,0.2291,0.2289,0.2265,0.2246,0.2227,0.2201,0.2181,0.2157,0.2137,0.2094,0.2112,0.209,0.2074,0.216,0.2158,0.2059,0.2118,0.2015,0.1978,0.1896,0.1804,0.2193,0.2208,0.2209,0.221,0.2211,0.2212,0,0.2271,0.226,0.225,0.2212,0.2183,0.2182,0.215,0.2118,0.2078,0.2053,0.2023,0.1966,0.1905,0.1869,0.1785,0.1678,0.1631,0.1594,0.141,0.1431,0.1811,0.1731,0.1589,0.1589,0.159,0.159,0.159,0.159,0.2252,0.2227,0.222,0.2165,0.2143,0.2093,0.2073,0.2034,0.2012,0.191,0.1852,0.1809,0.1667,0.1402,0.1206,0.1211,0.109,0.1016,0.1046,0.1263,0.1298,0.1331,0.1238,0.0995,0.0995,0.0616,0.0612,0.0609]},{"header":{"parameterUnit":"m.s-1","parameterCategory":2,"la1":30.2991,"la2":30.254,"lo1":-89.0895,"lo2":-89.0444,"dy":0.0017,"dx":0.0017,"nx":28,"ny":28,"refTime":"2025-02-01T09:00:00:Z","depth":"0","parameterNumber":3,"parameterNumberName":"V-component_of_CURRENTS"},"data":[0,0,0,0,0,0,0,0,0,0,0,0,0,0,0,0,0,0,0,0,0,0,0,0,0,0,0,0,0,0,0,0,0,0,0,0,0,0,0,0,0,0,0,0,0,0,0,0,0,0,0,0,0,0,0,0,0,0,0.0339,0.0339,0,0.0354,0.0354,0.0354,0.0358,0.0358,0.0358,0.0358,0.0381,0.0381,0.0382,0,0,0,0,0,0,0,0,0,0,0,0,0,0.0257,0.0259,0.0339,0.034,0.034,0.0354,0.0354,0.0354,0.0358,0.0358,0.0358,0.0358,0.038,0.0381,0.0382,0,0,0,0,0,0,0,0,0,0,0,0,0,0.0284,0.0259,0.0339,0.0343,0.0344,0.0354,0.0354,0.0354,0.0358,0.0358,0.0358,0.0358,0.038,0.0381,0.0382,0.039,0,0,0.0385,0.0386,0,0,0,0,0,0,0,0,0.0283,0.0287,0.0343,0.0343,0.0344,0.0354,0.0333,0.0367,0.0358,0.0352,0.0358,0.0358,0.0373,0.0374,0.0377,0.0391,0.0392,0.0385,0.0386,0.0386,0.0387,0,0,0,0,0,0,0,0.0281,0.0286,0.0345,0.0343,0.0344,0.0325,0.0329,0.0339,0.0363,0.0353,0.0353,0.0355,0.0373,0.0376,0.0377,0.0393,0.0385,0.0386,0.0387,0.0387,0.0407,0.0407,0,0,0,0,0,0,0.0283,0.0285,0.0344,0.0345,0.0312,0.0326,0.0331,0.0351,0.0363,0.0364,0.0355,0.0355,0.0374,0.0376,0.0378,0.0396,0.0386,0.0387,0.0388,0.0407,0.0407,0.0407,0,0,0,0,0,0,0.0281,0.0289,0.0344,0.0314,0.032,0.0328,0.035,0.0351,0.0354,0.0364,0.0366,0.0357,0.0374,0.0377,0.0385,0.0396,0.0388,0.0389,0.0407,0.0407,0.0407,0.0426,0,0,0,0,0,0,0.0279,0.0289,0.0303,0.0315,0.0322,0.0353,0.035,0.0351,0.0355,0.0356,0.0367,0.0369,0.0374,0.0384,0.0386,0.0397,0.0389,0.0408,0.0407,0.0407,0.0425,0.0427,0.0427,0,0,0,0,0,0.0277,0.0303,0.0304,0.031,0.0342,0.0354,0.0355,0.036,0.0356,0.0361,0.0363,0.0368,0.0385,0.0385,0.0388,0.0399,0.0408,0.0407,0.0407,0.0425,0.0426,0.0427,0,0,0,0,0,0,0.0276,0.0306,0.0307,0.0342,0.0346,0.0354,0.0362,0.0359,0.0365,0.0365,0.037,0.0372,0.0384,0.0385,0.0385,0.0402,0.0396,0.0397,0.0409,0.041,0.0411,0.0432,0.039,0,0,0,0,0,0.0282,0.031,0.0322,0.0348,0.0351,0.0354,0.0358,0.036,0.0366,0.0368,0.0373,0.0377,0.0386,0.0392,0.0398,0.041,0.0425,0.0417,0.0418,0.0419,0.0438,0.0468,0.0475,0.0407,0.0407,0.0407,0,0,0.029,0.0308,0.0324,0.0349,0.0353,0.0365,0.0357,0.0367,0.0376,0.037,0.0383,0.0382,0.0388,0.0401,0.0407,0.0405,0.0442,0.0419,0.042,0.0438,0.0469,0.0476,0.0482,0.0407,0.0407,0.0407,0,0,0.0315,0.0333,0.036,0.0364,0.0373,0.0374,0.0376,0.0382,0.0384,0.0393,0.0391,0.0399,0.0406,0.0418,0.0424,0.0435,0.0445,0.0427,0.0455,0.0484,0.0491,0.0497,0.0508,0.0515,0.0429,0.0429,0.0429,0,0.0321,0.0357,0.0366,0.0383,0.0388,0.0379,0.0394,0.0398,0.0404,0.0411,0.04,0.042,0.042,0.0449,0.0449,0.0441,0.0451,0.0451,0.0488,0.0494,0.05,0.0511,0.0518,0.043,0.043,0.043,0.043,0,0.0363,0.0381,0.0394,0.0417,0.0422,0.0432,0.0434,0.0439,0.0434,0.0439,0.0458,0.0458,0.0475,0.0469,0.0464,0.0501,0.0492,0.0486,0.049,0.0509,0.0517,0.0525,0.0431,0.0431,0.0431,0.0431,0,0,0.0404,0.0421,0.0424,0.0427,0.0437,0.0444,0.0461,0.0475,0.049,0.0491,0.0518,0.0525,0.0524,0.0531,0.0525,0.0547,0.0584,0.0535,0.0536,0.0555,0.064,0.0623,0.0629,0.0586,0.0587,0.0589,0.0625,0,0.0429,0.0455,0.0465,0.0481,0.0488,0.0486,0.0503,0.0513,0.0519,0.0541,0.0549,0.0568,0.0548,0.0555,0.0577,0.0588,0.0608,0.0575,0.0612,0.0614,0.0604,0.0639,0.0668,0.0702,0.0632,0.0633,0.0634,0,0.0466,0.0475,0.0492,0.0501,0.0507,0.0518,0.0538,0.0553,0.0581,0.0589,0.0614,0.0618,0.0654,0.0629,0.0675,0.0654,0.0653,0.0656,0.0657,0.0647,0.0612,0.0674,0.0718,0.0668,0.0646,0.0645,0.0644,0,0.047,0.0494,0.0502,0.0505,0.0519,0.053,0.0542,0.0566,0.0581,0.0622,0.064,0.068,0.0698,0.072,0.0721,0.0704,0.0767,0.0742,0.0726,0.0723,0.076,0.0758,0.0774,0.078,0.078,0.078,0.0779,0,0.0484,0.049,0.0502,0.0503,0.0519,0.0534,0.0558,0.0575,0.0612,0.0635,0.0664,0.0692,0.0724,0.0754,0.0752,0.0769,0.0794,0.0749,0.0743,0.0763,0.0761,0.0728,0.07,0.0781,0.0781,0.078,0.078,0,0.0471,0.0482,0.0489,0.0507,0.0514,0.0522,0.0552,0.0572,0.0609,0.0644,0.0659,0.0713,0.0761,0.0785,0.0823,0.0804,0.081,0.0814,0.0825,0.082,0.0747,0.0719,0.0763,0.0749,0.0811,0.0811,0.0811,0,0.0459,0.0462,0.0478,0.0482,0.0486,0.0504,0.0519,0.056,0.0582,0.065,0.0667,0.0731,0.0772,0.083,0.0843,0.0861,0.0819,0.086,0.0833,0.0765,0.073,0.0717,0.0701,0.0882,0.0883,0.0884,0.0884,0,0.0428,0.0436,0.0437,0.0449,0.0461,0.0482,0.0508,0.0527,0.058,0.0617,0.0672,0.0717,0.0796,0.0857,0.0885,0.0878,0.0841,0.0867,0.0814,0.081,0.0785,0.0761,0.0815,0.0888,0.0888,0.0887,0.0887,0.0887,0.0394,0.0389,0.0396,0.0406,0.0428,0.0456,0.0469,0.0508,0.0547,0.0611,0.066,0.0753,0.0865,0.0929,0.0877,0.0854,0.0856,0.0841,0.0819,0.0816,0.0791,0.0839,0.0888,0.0888,0.0887,0.0887,0.0887,0,0.0343,0.0347,0.0356,0.0372,0.0392,0.0416,0.0458,0.0481,0.0519,0.0613,0.0669,0.0853,0.0907,0.0939,0.0952,0.0851,0.0804,0.0792,0.079,0.0778,0.0845,0.0834,0.0854,0.0854,0.0854,0.0854,0.0854,0.0854,0.0311,0.0299,0.0311,0.0328,0.035,0.0375,0.0397,0.0446,0.0521,0.0661,0.0793,0.0902,0.1077,0.0972,0.0882,0.082,0.0735,0.0725,0.0669,0.0708,0.071,0.0713,0.0696,0.0686,0.0686,0.063,0.0629,0.0629]}],[{"header":{"parameterUnit":"m.s-1","parameterCategory":2,"la1":30.2991,"la2":30.254,"lo1":-89.0895,"lo2":-89.0444,"dy":0.0017,"dx":0.0017,"nx":28,"ny":28,"refTime":"2025-02-01T09:00:00:Z","depth":"2","parameterNumber":2,"parameterNumberName":"U-component_of_CURRENTS"},"data":[0,0,0,0,0,0,0,0,0,0,0,0,0,0,0,0,0,0,0,0,0,0,0,0,0,0,0,0,0,0,0,0,0,0,0,0,0,0,0,0,0,0,0,0,0,0,0,0,0,0,0,0,0,0,0,0,0,0,0.0514,0.0514,0,0.0511,0.0511,0.0511,0.0514,0.0514,0.0514,0.0514,0.0544,0.0544,0.0545,0,0,0,0,0,0,0,0,0,0,0,0,0,0.053,0.053,0.0514,0.0514,0.0514,0.0511,0.0511,0.0511,0.0514,0.0514,0.0514,0.0514,0.0544,0.0544,0.0545,0,0,0,0,0,0,0,0,0,0,0,0,0,0.0525,0.053,0.0514,0.0515,0.0515,0.0511,0.0511,0.0511,0.0513,0.0514,0.0514,0.0514,0.0543,0.0544,0.0545,0.0548,0,0,0.0548,0.0549,0,0,0,0,0,0,0,0,0.0525,0.0524,0.0515,0.0515,0.0515,0.0513,0.0527,0.0525,0.0513,0.0514,0.0514,0.0514,0.0536,0.0538,0.0536,0.055,0.0551,0.0549,0.0549,0.055,0.055,0,0,0,0,0,0,0,0.0525,0.0524,0.0513,0.0515,0.0515,0.0518,0.0517,0.0526,0.0525,0.0514,0.0514,0.0514,0.0537,0.0535,0.0537,0.0551,0.0549,0.0549,0.055,0.055,0.0603,0.0604,0,0,0,0,0,0,0.0525,0.0524,0.0513,0.0513,0.052,0.0517,0.0517,0.0513,0.0524,0.0526,0.0514,0.0514,0.0534,0.0536,0.0538,0.0576,0.055,0.0551,0.0551,0.0602,0.0603,0.0604,0,0,0,0,0,0,0.0525,0.0524,0.0513,0.0519,0.0518,0.0517,0.0513,0.0513,0.0519,0.0523,0.0526,0.052,0.0534,0.0537,0.0557,0.0576,0.0551,0.0552,0.0602,0.0603,0.0604,0.063,0,0,0,0,0,0,0.0526,0.0524,0.0526,0.0519,0.0517,0.0513,0.0513,0.0513,0.0518,0.0518,0.053,0.0532,0.0534,0.0556,0.0558,0.0577,0.0553,0.0601,0.0602,0.0603,0.0628,0.0632,0.0635,0,0,0,0,0,0.0526,0.0522,0.0526,0.0525,0.0519,0.0513,0.0513,0.0513,0.0518,0.052,0.0533,0.0532,0.0567,0.0557,0.056,0.0579,0.06,0.0602,0.0603,0.0626,0.0631,0.0635,0,0,0,0,0,0,0.0527,0.0521,0.0526,0.0521,0.0521,0.0514,0.0515,0.0518,0.0528,0.0534,0.0541,0.0544,0.0571,0.057,0.0559,0.0599,0.0584,0.0586,0.0601,0.0605,0.0608,0.0615,0.0554,0,0,0,0,0,0.053,0.0528,0.0524,0.0522,0.0522,0.0522,0.0523,0.0523,0.0529,0.0533,0.0544,0.0559,0.0578,0.0588,0.06,0.062,0.0636,0.0635,0.0638,0.0641,0.0649,0.0696,0.0705,0.061,0.061,0.061,0,0,0.0529,0.0527,0.0526,0.0523,0.0524,0.0525,0.0523,0.0523,0.0534,0.0536,0.0558,0.0572,0.0587,0.0611,0.0623,0.0614,0.0675,0.0643,0.0646,0.0652,0.0699,0.0708,0.0716,0.0611,0.0611,0.0611,0,0,0.0523,0.0527,0.0522,0.0525,0.0527,0.053,0.0533,0.0534,0.0544,0.0562,0.0575,0.0602,0.0619,0.064,0.0652,0.0682,0.0694,0.0686,0.0709,0.0754,0.0763,0.077,0.0798,0.0808,0.0686,0.0686,0.0686,0,0.0526,0.0519,0.0521,0.052,0.0526,0.0534,0.0536,0.0548,0.0559,0.0578,0.0573,0.0628,0.0636,0.0684,0.0692,0.0692,0.0714,0.0691,0.076,0.0767,0.0775,0.0802,0.0813,0.0687,0.0687,0.0687,0.0687,0,0.0513,0.0516,0.0514,0.0521,0.0528,0.053,0.0547,0.0565,0.0581,0.0598,0.0647,0.0665,0.0701,0.0707,0.0708,0.0767,0.0765,0.076,0.0749,0.0786,0.0812,0.0823,0.069,0.0689,0.0689,0.0688,0,0,0.0498,0.0504,0.0506,0.0512,0.053,0.0532,0.0563,0.0592,0.0621,0.0647,0.069,0.0727,0.0748,0.0764,0.0777,0.0811,0.0874,0.0808,0.0809,0.0836,0.0971,0.0865,0.0866,0.0887,0.0889,0.089,0.0967,0,0.049,0.0487,0.0498,0.0509,0.051,0.054,0.0568,0.0603,0.0637,0.0681,0.0725,0.0767,0.0768,0.0792,0.0831,0.0866,0.0905,0.0854,0.0931,0.0933,0.0835,0.0876,0.0765,0.0815,0.0977,0.0979,0.098,0,0.0473,0.0475,0.0478,0.0505,0.0511,0.0528,0.0583,0.0608,0.0679,0.0709,0.0771,0.0806,0.0875,0.0861,0.0958,0.0928,0.0956,0.0976,0.098,0.0879,0.0846,0.0806,0.0828,0.0998,0.0997,0.0995,0.0994,0,0.0449,0.0464,0.0468,0.0475,0.0506,0.053,0.0557,0.062,0.0652,0.0736,0.0769,0.0859,0.0898,0.0965,0.1008,0.0996,0.1098,0.1087,0.1021,0.1014,0.0933,0.0914,0.1159,0.1159,0.1159,0.1159,0.1158,0,0.0428,0.0434,0.0459,0.046,0.0483,0.0515,0.0556,0.06,0.0667,0.0709,0.0785,0.0832,0.0926,0.099,0.1034,0.1054,0.1127,0.1034,0.1031,0.0935,0.0916,0.1083,0.1073,0.1162,0.1161,0.116,0.116,0,0.0397,0.0411,0.0418,0.0453,0.0469,0.0486,0.0543,0.0574,0.064,0.07,0.073,0.0827,0.0911,0.0988,0.1086,0.1063,0.1109,0.1098,0.0965,0.0942,0.0991,0.0981,0.1041,0.1038,0.1035,0.1033,0.1032,0,0.0378,0.0375,0.0406,0.0416,0.0434,0.0466,0.0492,0.0557,0.0589,0.0691,0.0714,0.0813,0.0853,0.0942,0.0942,0.0987,0.1076,0.0903,0.0848,0.099,0.0982,0.0976,0.097,0.0765,0.0761,0.0758,0.0755,0,0.0342,0.0357,0.0364,0.0383,0.0407,0.0431,0.0472,0.0489,0.0567,0.0612,0.0674,0.0712,0.0764,0.0749,0.0778,0.0789,0.0883,0.0835,0.1057,0.0784,0.0728,0.0719,0.0724,0.0727,0.073,0.0732,0.0734,0.0735,0.0322,0.0319,0.0333,0.0349,0.0374,0.0392,0.0403,0.044,0.0474,0.0523,0.0577,0.0581,0.0601,0.0556,0.059,0.0615,0.0664,0.0657,0.0669,0.0683,0.061,0.0549,0.0502,0.0503,0.0505,0.0506,0.0507,0,0.0292,0.0297,0.0301,0.0317,0.0325,0.0362,0.0387,0.0384,0.0401,0.0417,0.0438,0.0337,0.0337,0.0414,0.0374,0.0367,0.0383,0.0396,0.043,0.0454,0.0477,0.0397,0.0231,0.0231,0.0231,0.0231,0,0,0.0277,0.0265,0.0263,0.0263,0.0287,0.0298,0.0308,0.0302,0.0293,0.0226,0.0196,0.0225,0.028,0.0207,0.0232,0.024,0.0343,0.022,0.0426,0.0482,0.0504,0.0596,0.0494,0,0,0,0,0]},{"header":{"parameterUnit":"m.s-1","parameterCategory":2,"la1":30.2991,"la2":30.254,"lo1":-89.0895,"lo2":-89.0444,"dy":0.0017,"dx":0.0017,"nx":28,"ny":28,"refTime":"2025-02-01T09:00:00:Z","depth":"2","parameterNumber":3,"parameterNumberName":"V-component_of_CURRENTS"},"data":[0,0,0,0,0,0,0,0,0,0,0,0,0,0,0,0,0,0,0,0,0,0,0,0,0,0,0,0,0,0,0,0,0,0,0,0,0,0,0,0,0,0,0,0,0,0,0,0,0,0,0,0,0,0,0,0,0,0,0.0067,0.0067,0,0.0077,0.0077,0.0078,0.007,0.007,0.0069,0.0069,0.0071,0.0071,0.0072,0,0,0,0,0,0,0,0,0,0,0,0,0,0.0065,0.0065,0.0067,0.0067,0.0067,0.0077,0.0078,0.0078,0.007,0.007,0.0069,0.0069,0.0071,0.0071,0.0072,0,0,0,0,0,0,0,0,0,0,0,0,0,0.0071,0.0065,0.0067,0.0064,0.0064,0.0077,0.0078,0.0078,0.007,0.007,0.0069,0.0068,0.007,0.0071,0.0072,0.0088,0,0,0.0074,0.0074,0,0,0,0,0,0,0,0,0.007,0.0071,0.0064,0.0064,0.0064,0.0071,0.0078,0.008,0.007,0.0069,0.0069,0.0068,0.007,0.0071,0.0075,0.0088,0.0088,0.0074,0.0074,0.0074,0.0075,0,0,0,0,0,0,0,0.007,0.007,0.0072,0.0064,0.0064,0.0071,0.007,0.0078,0.0073,0.0069,0.0068,0.0068,0.007,0.0075,0.0075,0.0088,0.0074,0.0074,0.0075,0.0075,0.0101,0.0102,0,0,0,0,0,0,0.0067,0.007,0.0072,0.0072,0.0065,0.0071,0.0071,0.007,0.0073,0.0073,0.0069,0.0068,0.0074,0.0074,0.0075,0.0085,0.0074,0.0075,0.0075,0.0101,0.0101,0.0102,0,0,0,0,0,0,0.0066,0.0067,0.0071,0.0071,0.0072,0.0071,0.0071,0.0071,0.0074,0.0073,0.0073,0.0072,0.0073,0.0074,0.0083,0.0085,0.0075,0.0076,0.0101,0.0101,0.0102,0.011,0,0,0,0,0,0,0.0066,0.0066,0.0068,0.007,0.0071,0.0082,0.0071,0.0071,0.0075,0.0074,0.0076,0.0075,0.0073,0.0082,0.0084,0.0086,0.0076,0.01,0.0101,0.0101,0.0109,0.0111,0.0112,0,0,0,0,0,0.0066,0.007,0.0068,0.0068,0.0072,0.0083,0.0084,0.0083,0.0075,0.0082,0.0081,0.0075,0.0087,0.0084,0.0085,0.0087,0.01,0.0101,0.0101,0.0109,0.011,0.0112,0,0,0,0,0,0,0.0072,0.007,0.0067,0.007,0.0077,0.0081,0.0086,0.0085,0.009,0.0087,0.0084,0.0084,0.0091,0.0091,0.0087,0.0096,0.0091,0.0092,0.0096,0.0097,0.0099,0.01,0.0077,0,0,0,0,0,0.0073,0.0074,0.0076,0.008,0.0082,0.0085,0.0089,0.0089,0.0092,0.0093,0.0095,0.0095,0.0096,0.0098,0.0102,0.0112,0.011,0.0113,0.0114,0.0115,0.0117,0.0114,0.0115,0.0104,0.0104,0.0104,0,0,0.0076,0.0075,0.0076,0.0081,0.0084,0.0094,0.0086,0.0093,0.0101,0.0093,0.0104,0.0101,0.01,0.0107,0.011,0.0107,0.0119,0.0116,0.0117,0.0118,0.0115,0.0116,0.0117,0.0104,0.0104,0.0104,0,0,0.0084,0.0082,0.0086,0.0092,0.0098,0.0102,0.0104,0.011,0.0111,0.0122,0.0115,0.0115,0.0123,0.0121,0.012,0.0133,0.0125,0.0131,0.0139,0.0136,0.0136,0.0137,0.0141,0.0142,0.0132,0.0132,0.0132,0,0.0086,0.0094,0.0091,0.0099,0.0107,0.0105,0.0118,0.0121,0.013,0.0137,0.0126,0.0135,0.0129,0.0138,0.0134,0.0136,0.0134,0.0132,0.0137,0.0137,0.0138,0.0142,0.0143,0.0132,0.0132,0.0132,0.0132,0,0.0099,0.0107,0.0111,0.0119,0.0129,0.0141,0.0145,0.0154,0.0152,0.0156,0.0165,0.0157,0.0163,0.0156,0.0145,0.0148,0.0146,0.0138,0.0132,0.0139,0.0143,0.0144,0.0133,0.0133,0.0132,0.0132,0,0,0.0095,0.0116,0.0117,0.0133,0.0142,0.0156,0.0166,0.0183,0.02,0.0193,0.0214,0.0196,0.0191,0.0189,0.0177,0.0166,0.0161,0.015,0.0149,0.0152,0.0158,0.016,0.0161,0.0151,0.0151,0.0151,0.0161,0,0.0106,0.0131,0.0137,0.0166,0.0184,0.0189,0.0206,0.0219,0.0227,0.0247,0.023,0.0244,0.0205,0.021,0.0189,0.0176,0.0163,0.0159,0.0152,0.0152,0.0151,0.0162,0.0137,0.0144,0.0161,0.0162,0.0162,0,0.0116,0.0135,0.0163,0.0203,0.0211,0.0224,0.026,0.0275,0.0294,0.0301,0.03,0.0296,0.0285,0.0249,0.0217,0.0216,0.0184,0.0164,0.0164,0.0163,0.0155,0.0139,0.0145,0.0163,0.0163,0.0163,0.0163,0,0.0124,0.0156,0.0183,0.0194,0.0231,0.0244,0.0263,0.0288,0.0315,0.0335,0.0362,0.0344,0.0349,0.0301,0.0258,0.0236,0.0227,0.0198,0.017,0.017,0.0147,0.0145,0.0168,0.0168,0.0168,0.0168,0.0168,0,0.0138,0.0161,0.0188,0.0204,0.0244,0.026,0.0303,0.032,0.0357,0.0403,0.0387,0.0425,0.0359,0.035,0.0288,0.0243,0.0252,0.0176,0.0173,0.015,0.0149,0.0161,0.016,0.0169,0.0169,0.0169,0.0169,0,0.0147,0.0162,0.0198,0.0235,0.0248,0.0275,0.0328,0.0369,0.0393,0.0454,0.0465,0.0487,0.0479,0.0422,0.0366,0.0296,0.0247,0.0226,0.021,0.0204,0.0181,0.018,0.0189,0.0189,0.0189,0.0189,0.0189,0,0.0158,0.0176,0.0217,0.0242,0.0257,0.0298,0.0338,0.0377,0.0427,0.0501,0.0541,0.0558,0.0582,0.0512,0.0395,0.0301,0.0286,0.0213,0.0159,0.0187,0.0183,0.0182,0.0181,0.0133,0.0132,0.0132,0.0132,0,0.0183,0.019,0.022,0.0267,0.0306,0.0364,0.042,0.0465,0.0527,0.0584,0.0668,0.0693,0.0626,0.0528,0.0396,0.0322,0.0223,0.0203,0.0245,0.0134,0.0135,0.0131,0.0132,0.0129,0.013,0.013,0.013,0.013,0.0197,0.0222,0.0258,0.0305,0.0353,0.043,0.0486,0.0557,0.0645,0.0746,0.0752,0.0765,0.0614,0.0436,0.0342,0.0231,0.0221,0.0147,0.0147,0.0148,0.0142,0.0144,0.0139,0.0139,0.0139,0.014,0.014,0,0.0219,0.025,0.0299,0.0364,0.0429,0.0444,0.0547,0.0626,0.0734,0.0794,0.0853,0.0676,0.0564,0.0431,0.0253,0.0144,0.0126,0.0121,0.0105,0.0107,0.0109,0.01,0.0087,0.0087,0.0087,0.0087,0,0,0.0234,0.0281,0.0311,0.0419,0.0464,0.0566,0.0626,0.0744,0.0807,0.086,0.0826,0.0778,0.0566,0.0411,0.0271,0.0198,0.019,0.0184,0.0229,0.023,0.0234,0.0117,0.0105,0,0,0,0,0]}],[{"header":{"parameterUnit":"m.s-1","parameterCategory":2,"la1":30.2991,"la2":30.254,"lo1":-89.0895,"lo2":-89.0444,"dy":0.0017,"dx":0.0017,"nx":28,"ny":28,"refTime":"2025-02-01T09:00:00:Z","depth":"4","parameterNumber":2,"parameterNumberName":"U-component_of_CURRENTS"},"data":[0,0,0,0,0,0,0,0,0,0,0,0,0,0,0,0,0,0,0,0,0,0,0,0,0,0,0,0,0,0,0,0,0,0,0,0,0,0,0,0,0,0,0,0,0,0,0,0,0,0,0,0,0,0,0,0,0,0,-0.0217,-0.0216,0,-0.0181,-0.0181,-0.0181,-0.0143,-0.0142,-0.0142,-0.0141,-0.0114,-0.0114,-0.0114,0,0,0,0,0,0,0,0,0,0,0,0,0,-0.0253,-0.0252,-0.0217,-0.0216,-0.0216,-0.0181,-0.0181,-0.0181,-0.0143,-0.0142,-0.0142,-0.0141,-0.0114,-0.0114,-0.0114,0,0,0,0,0,0,0,0,0,0,0,0,0,-0.023,-0.0252,-0.0217,-0.0192,-0.019,-0.0181,-0.0181,-0.018,-0.0143,-0.0142,-0.0141,-0.014,-0.0114,-0.0114,-0.0114,-0.013,0,0,-0.0113,-0.0113,0,0,0,0,0,0,0,0,-0.0231,-0.0229,-0.0196,-0.0194,-0.0191,-0.0165,-0.0184,-0.0164,-0.0143,-0.0162,-0.0141,-0.014,-0.0132,-0.013,-0.0127,-0.0129,-0.0128,-0.0113,-0.0113,-0.0113,-0.0112,0,0,0,0,0,0,0,-0.0233,-0.023,-0.0204,-0.0196,-0.0193,-0.0183,-0.0179,-0.018,-0.0153,-0.016,-0.0157,-0.0152,-0.013,-0.0127,-0.0126,-0.0128,-0.0113,-0.0113,-0.0112,-0.0112,-0.0113,-0.0113,0,0,0,0,0,0,-0.0237,-0.0232,-0.0205,-0.0202,-0.0208,-0.0183,-0.0179,-0.0175,-0.0153,-0.0148,-0.0153,-0.015,-0.0128,-0.0126,-0.0125,-0.0109,-0.0113,-0.0112,-0.0112,-0.0113,-0.0113,-0.0113,0,0,0,0,0,0,-0.0238,-0.0235,-0.0206,-0.0216,-0.0211,-0.0184,-0.018,-0.0175,-0.0153,-0.0147,-0.0143,-0.0134,-0.0127,-0.0125,-0.0114,-0.0108,-0.0112,-0.0112,-0.0112,-0.0113,-0.0113,-0.0099,0,0,0,0,0,0,-0.0239,-0.0235,-0.023,-0.0216,-0.0211,-0.0194,-0.018,-0.0175,-0.0152,-0.0148,-0.013,-0.0128,-0.0126,-0.0114,-0.0114,-0.0108,-0.0112,-0.0112,-0.0113,-0.0113,-0.0099,-0.0099,-0.0098,0,0,0,0,0,-0.024,-0.024,-0.023,-0.0226,-0.0205,-0.0194,-0.019,-0.0168,-0.0152,-0.0145,-0.0132,-0.0127,-0.0116,-0.0114,-0.0114,-0.0108,-0.0112,-0.0113,-0.0113,-0.0099,-0.0099,-0.0098,0,0,0,0,0,0,-0.0253,-0.0235,-0.0224,-0.0218,-0.0202,-0.0187,-0.0178,-0.0161,-0.0145,-0.0136,-0.0128,-0.0125,-0.0115,-0.0116,-0.0114,-0.011,-0.0114,-0.0114,-0.0104,-0.0104,-0.0103,-0.0092,-0.0112,0,0,0,0,0,-0.0254,-0.0248,-0.0229,-0.0224,-0.0215,-0.0193,-0.0183,-0.0166,-0.0152,-0.0142,-0.0128,-0.012,-0.0121,-0.0114,-0.0114,-0.011,-0.0119,-0.0107,-0.0107,-0.0106,-0.0098,-0.0107,-0.0106,-0.0114,-0.0114,-0.0114,0,0,-0.0258,-0.0247,-0.0243,-0.0226,-0.0211,-0.0201,-0.0184,-0.0166,-0.0153,-0.0144,-0.012,-0.0117,-0.012,-0.0115,-0.0111,-0.0111,-0.0113,-0.0107,-0.0106,-0.0098,-0.0107,-0.0106,-0.0106,-0.0114,-0.0114,-0.0114,0,0,-0.0266,-0.0252,-0.0248,-0.0235,-0.0211,-0.0199,-0.019,-0.0163,-0.0146,-0.0128,-0.0122,-0.0113,-0.0104,-0.0106,-0.0108,-0.0107,-0.0112,-0.0106,-0.0089,-0.0098,-0.0098,-0.0097,-0.0122,-0.0124,-0.0103,-0.0103,-0.0102,0,-0.0269,-0.0263,-0.0246,-0.0237,-0.0226,-0.0197,-0.0188,-0.0171,-0.0142,-0.013,-0.0118,-0.0103,-0.0102,-0.0104,-0.0098,-0.0104,-0.0113,-0.009,-0.0097,-0.0096,-0.0096,-0.0122,-0.0124,-0.0102,-0.0102,-0.0102,-0.0102,0,-0.0275,-0.0265,-0.0262,-0.0242,-0.0228,-0.0216,-0.0191,-0.0169,-0.0142,-0.0124,-0.0105,-0.0101,-0.0087,-0.0092,-0.009,-0.0087,-0.0096,-0.0097,-0.0096,-0.0094,-0.0122,-0.0124,-0.0101,-0.0101,-0.0101,-0.0102,0,0,-0.029,-0.027,-0.0268,-0.0257,-0.0227,-0.0218,-0.0196,-0.0171,-0.0154,-0.0122,-0.0105,-0.0095,-0.0074,-0.0075,-0.0073,-0.0077,-0.0085,-0.0076,-0.0077,-0.0097,-0.0112,-0.0089,-0.009,-0.0081,-0.008,-0.008,-0.0139,0,-0.0296,-0.0289,-0.0275,-0.0261,-0.0251,-0.0221,-0.0206,-0.0178,-0.015,-0.0126,-0.0109,-0.009,-0.0074,-0.0061,-0.006,-0.0078,-0.0087,-0.0069,-0.0114,-0.0116,-0.0091,-0.009,-0.008,-0.014,-0.0141,-0.0141,-0.0142,0,-0.0302,-0.0296,-0.029,-0.0266,-0.0258,-0.0242,-0.0209,-0.0189,-0.0153,-0.013,-0.0098,-0.0079,-0.0066,-0.0056,-0.0073,-0.0059,-0.0076,-0.0096,-0.0098,-0.0079,-0.0095,-0.014,-0.0146,-0.0146,-0.0145,-0.0145,-0.0145,0,-0.0321,-0.0304,-0.03,-0.0292,-0.0263,-0.0247,-0.0221,-0.0185,-0.0163,-0.0121,-0.0102,-0.0081,-0.0066,-0.0077,-0.0085,-0.0077,-0.012,-0.0122,-0.0126,-0.0127,-0.0137,-0.0137,-0.0141,-0.014,-0.014,-0.014,-0.014,0,-0.0322,-0.032,-0.0304,-0.0301,-0.0286,-0.0254,-0.0227,-0.0199,-0.0158,-0.0136,-0.0094,-0.0088,-0.0065,-0.0077,-0.0094,-0.0111,-0.0125,-0.012,-0.0132,-0.0133,-0.0132,-0.014,-0.0139,-0.0142,-0.0142,-0.0141,-0.0141,0,-0.0327,-0.0324,-0.0327,-0.0307,-0.0294,-0.0278,-0.0224,-0.0202,-0.0161,-0.0133,-0.0114,-0.0089,-0.0095,-0.0094,-0.0125,-0.012,-0.0148,-0.0156,-0.0167,-0.018,-0.0152,-0.015,-0.0166,-0.0166,-0.0165,-0.0165,-0.0164,0,-0.0322,-0.0327,-0.0337,-0.0335,-0.0318,-0.0284,-0.0257,-0.0205,-0.0178,-0.0146,-0.0139,-0.0125,-0.011,-0.0136,-0.0144,-0.0166,-0.0163,-0.0174,-0.0142,-0.0141,-0.0152,-0.015,-0.0149,-0.0164,-0.0164,-0.0164,-0.0163,0,-0.0316,-0.0337,-0.0343,-0.0349,-0.033,-0.0304,-0.0257,-0.0238,-0.0182,-0.0157,-0.0134,-0.012,-0.0132,-0.0135,-0.0136,-0.0162,-0.0159,-0.017,-0.017,-0.014,-0.0138,-0.0149,-0.0148,-0.0162,-0.0162,-0.0162,-0.0162,0,-0.0322,-0.0332,-0.0356,-0.0346,-0.0342,-0.0317,-0.0292,-0.0243,-0.0207,-0.015,-0.0162,-0.0152,-0.014,-0.0139,-0.0163,-0.0151,-0.0148,-0.0137,-0.0139,-0.0141,-0.0101,-0.0093,-0.011,0,0,0,0,0,-0.0318,-0.0325,-0.0337,-0.0338,-0.0341,-0.0325,-0.029,-0.0261,-0.0215,-0.0185,-0.0155,-0.0158,-0.0144,-0.0161,-0.0145,-0.0179,-0.017,-0.0162,-0.0163,-0.0154,-0.0155,-0.0108,0,0,0,0,0,0,-0.0318,-0.0339,-0.0339,-0.0331,-0.0322,-0.0309,-0.0287,-0.0257,-0.023,-0.0188,-0.0186,-0.0146,-0.015,-0.0145,-0.0142,-0.0142,-0.0139,-0.0151,-0.0151,-0.0153,-0.0154,-0.0156,-0.0108,0,0,0,0,0]},{"header":{"parameterUnit":"m.s-1","parameterCategory":2,"la1":30.2991,"la2":30.254,"lo1":-89.0895,"lo2":-89.0444,"dy":0.0017,"dx":0.0017,"nx":28,"ny":28,"refTime":"2025-02-01T09:00:00:Z","depth":"4","parameterNumber":3,"parameterNumberName":"V-component_of_CURRENTS"},"data":[0,0,0,0,0,0,0,0,0,0,0,0,0,0,0,0,0,0,0,0,0,0,0,0,0,0,0,0,0,0,0,0,0,0,0,0,0,0,0,0,0,0,0,0,0,0,0,0,0,0,0,0,0,0,0,0,0,0,0.0111,0.0111,0,0.0104,0.0103,0.0103,0.0094,0.0094,0.0094,0.0094,0.0066,0.0065,0.0064,0,0,0,0,0,0,0,0,0,0,0,0,0,0.0115,0.0115,0.0111,0.0111,0.0111,0.0104,0.0103,0.0103,0.0094,0.0094,0.0094,0.0094,0.0066,0.0065,0.0064,0,0,0,0,0,0,0,0,0,0,0,0,0,0.011,0.0115,0.0111,0.0106,0.0106,0.0104,0.0103,0.0103,0.0094,0.0094,0.0094,0.0094,0.0066,0.0065,0.0064,0.0058,0,0,0.0061,0.006,0,0,0,0,0,0,0,0,0.011,0.011,0.0107,0.0107,0.0106,0.0101,0.0095,0.0088,0.0094,0.0097,0.0094,0.0094,0.0076,0.0074,0.0071,0.0057,0.0056,0.0061,0.006,0.0059,0.0059,0,0,0,0,0,0,0,0.0111,0.011,0.0106,0.0107,0.0107,0.0105,0.0104,0.0093,0.0085,0.0097,0.0096,0.0098,0.0076,0.0073,0.0071,0.0055,0.0061,0.006,0.0059,0.0059,-0.0,-0.0001,0,0,0,0,0,0,0.0114,0.011,0.0107,0.0106,0.011,0.0105,0.0103,0.0101,0.0086,0.0084,0.0098,0.0097,0.0074,0.0072,0.007,0.0038,0.0059,0.0058,0.0058,0.0,-0.0001,-0.0002,0,0,0,0,0,0,0.0114,0.0114,0.0107,0.011,0.0109,0.0105,0.0102,0.0101,0.0086,0.0087,0.0085,0.0083,0.0074,0.0071,0.0047,0.0037,0.0058,0.0057,0.0002,0.0,-0.0001,-0.0011,0,0,0,0,0,0,0.0115,0.0114,0.0106,0.011,0.0109,0.0096,0.0103,0.0101,0.0089,0.0088,0.0074,0.0072,0.0074,0.0049,0.0046,0.0036,0.0056,0.0003,0.0001,-0.0001,-0.001,-0.0013,-0.0015,0,0,0,0,0,0.0115,0.0104,0.0105,0.0105,0.01,0.0095,0.0094,0.0091,0.0088,0.0077,0.0067,0.0072,0.0036,0.0047,0.0044,0.0034,0.0004,0.0001,-0.0001,-0.0008,-0.0012,-0.0015,0,0,0,0,0,0,0.0097,0.0103,0.0104,0.0094,0.0091,0.0094,0.0084,0.0082,0.0065,0.006,0.006,0.0057,0.0032,0.003,0.0042,0.001,0.0021,0.0018,0.0016,0.0012,0.0009,0.0026,0.0055,0,0,0,0,0,0.0092,0.0087,0.0091,0.0081,0.008,0.0079,0.0074,0.0071,0.0063,0.0055,0.0045,0.0033,0.0023,0.0015,0.0003,-0.0015,-0.0004,-0.0024,-0.0027,-0.0029,-0.0019,-0.0018,-0.0019,-0.0008,-0.0008,-0.0008,0,0,0.0082,0.0085,0.008,0.0077,0.0075,0.007,0.0074,0.0062,0.0055,0.0054,0.003,0.0019,0.0014,-0.0005,-0.0016,-0.0008,-0.0029,-0.0032,-0.0034,-0.0022,-0.002,-0.0021,-0.0021,-0.001,-0.001,-0.0009,0,0,0.0066,0.0062,0.0056,0.0054,0.005,0.0051,0.0045,0.0038,0.003,0.001,0.0007,-0.0009,-0.003,-0.0031,-0.0033,-0.0061,-0.0046,-0.007,-0.0067,-0.0066,-0.0066,-0.0066,-0.0058,-0.0057,-0.0068,-0.0069,-0.0069,0,0.0053,0.0051,0.0051,0.0046,0.0046,0.0042,0.0036,0.0028,0.0011,0.0006,-0.0002,-0.0029,-0.0038,-0.0046,-0.0054,-0.0065,-0.0058,-0.0051,-0.0068,-0.0068,-0.0067,-0.0059,-0.0058,-0.0069,-0.0069,-0.0069,-0.0069,0,0.0039,0.0035,0.003,0.0028,0.0023,0.0015,0.0013,-0.0002,-0.0013,-0.0016,-0.0037,-0.005,-0.0057,-0.0071,-0.0068,-0.0074,-0.0068,-0.0072,-0.0054,-0.0069,-0.0059,-0.0058,-0.007,-0.007,-0.007,-0.007,0,0,0.0022,0.0022,0.002,0.0022,0.0015,0.0012,-0.0002,-0.0008,-0.0012,-0.0036,-0.0041,-0.0061,-0.0062,-0.0065,-0.007,-0.0072,-0.0071,-0.0069,-0.0069,-0.0051,-0.0061,-0.0065,-0.0064,-0.0076,-0.0075,-0.0075,-0.0056,0,0.0013,0.0009,0.001,0.0003,0.0002,-0.0001,-0.0009,-0.0018,-0.0027,-0.0038,-0.0048,-0.0055,-0.0061,-0.0061,-0.0066,-0.0073,-0.0067,-0.0075,-0.0057,-0.0057,-0.005,-0.0062,-0.0075,-0.0054,-0.0054,-0.0054,-0.0054,0,0.0004,0.0006,0.0002,0.0004,0.0003,0.0,-0.0005,-0.0011,-0.0022,-0.0028,-0.0035,-0.0042,-0.0047,-0.0051,-0.0054,-0.0058,-0.0053,-0.0057,-0.0057,-0.0052,-0.0058,-0.0037,-0.0051,-0.0051,-0.0051,-0.0052,-0.0052,0,0.0003,0.0001,0.0002,0.0002,0.0001,0.0002,0.0003,-0.0006,-0.0004,-0.0011,-0.0014,-0.0024,-0.0027,-0.0029,-0.0039,-0.0041,-0.0045,-0.0049,-0.0044,-0.0044,-0.004,-0.004,-0.0038,-0.0038,-0.0038,-0.0038,-0.0038,0,-0.0002,-0.0003,0.0007,0.0008,0.0013,0.0012,0.0017,0.0014,0.0015,0.0014,0.0003,-0.001,-0.002,-0.003,-0.0034,-0.0037,-0.0036,-0.0038,-0.004,-0.0047,-0.0048,-0.0039,-0.0039,-0.0038,-0.0038,-0.0038,-0.0038,0,-0.001,-0.0004,0.0,0.0008,0.0015,0.0021,0.0037,0.0042,0.0041,0.004,0.0043,0.0012,-0.0006,-0.0015,-0.0025,-0.0028,-0.0033,-0.0029,-0.003,-0.0032,-0.003,-0.0032,-0.0017,-0.0017,-0.0017,-0.0017,-0.0017,0,-0.0019,-0.0014,0.0003,0.0015,0.0022,0.0037,0.0049,0.0058,0.0064,0.0044,0.0041,0.0022,0.0001,-0.0017,-0.0033,-0.003,-0.003,-0.002,-0.0028,-0.0026,-0.0028,-0.003,-0.0031,-0.0017,-0.0017,-0.0017,-0.0017,0,-0.0032,-0.0021,-0.0016,0.0013,0.0033,0.0054,0.0072,0.0067,0.007,0.0077,0.0046,0.0026,0.0001,-0.0024,-0.0016,-0.002,-0.0025,-0.002,-0.002,-0.0027,-0.0025,-0.0028,-0.003,-0.0017,-0.0017,-0.0017,-0.0017,0,-0.0041,-0.0037,-0.0019,0.0006,0.004,0.006,0.006,0.0066,0.0073,0.0056,0.0039,0.0007,-0.0004,-0.002,-0.0025,-0.0019,-0.0018,-0.0009,-0.001,-0.001,-0.002,-0.0017,-0.0004,0,0,0,0,0,-0.0048,-0.0039,-0.0022,0.0004,0.004,0.007,0.0076,0.0071,0.0065,0.0055,0.0053,0.0031,0.0008,-0.002,-0.0013,-0.0032,-0.0024,-0.0024,-0.0015,-0.0017,-0.0017,-0.0031,0,0,0,0,0,0,-0.0052,-0.0041,-0.0028,0.001,0.0039,0.0077,0.0085,0.0071,0.0063,0.0052,0.0036,0.0052,0.0024,0.0022,-0.0002,-0.0004,0.0004,-0.0027,-0.0027,-0.0017,-0.0017,-0.0017,-0.0031,0,0,0,0,0]}]]